WX2DX-2 Weather Reports


Display with metric or nautical units.
time (UTC)temp
F
wind
direction
speed
MPH
gust
MPH
rain 1hr
in
rain 24hr
in
rain mn
in
humidity
%
barometer
mb
20260904151536 78 321 2.0 10.0 0.00 0.05 0.00 76 1015.3
20260904150031 77 264 5.0 11.0 0.00 0.05 0.00 76 1015.3
20260904144527 77 335 1.0 7.0 0.00 0.05 0.00 78 1015.3
20260904143026 77 268 5.0 10.0 0.00 0.05 0.00 76 1015.3
20260904141524 76 360 4.0 10.0 0.00 0.05 0.00 78 1015.4
20260904140022 76 259 2.0 8.0 0.00 0.05 0.00 81 1015.6
20260904134519 76 250 3.0 11.0 0.00 0.09 0.00 79 1015.3
20260904133016 75 302 2.0 5.0 0.00 0.09 0.00 80 1015.3
20260904131512 74 250 2.0 9.0 0.00 0.09 0.00 84 1015.5
20260904130010 73 263 5.0 9.0 0.00 0.09 0.00 82 1015.7
20260904124506 72 286 4.0 10.0 0.00 0.15 0.00 84 1015.7
20260904123005 72 279 1.0 5.0 0.00 0.15 0.00 86 1015.8
20260904121603 71 287 2.0 6.0 0.00 0.15 0.00 86 1015.8
20260904114553 70 312 2.0 8.0 0.00 0.15 0.00 88 1016.0
20260904113056 70 342 1.0 5.0 0.00 0.15 0.00 88 1015.8
20260904111546 70 310 1.0 11.0 0.00 0.15 0.00 89 1015.9
20260904110053 70 5 1.0 5.0 0.00 0.15 0.00 89 1015.8
20260904104541 70 330 1.0 11.0 0.00 0.15 0.00 89 1015.7
20260904103041 70 273 2.0 17.0 0.00 0.15 0.00 89 1015.7
20260904101542 70 274 5.0 10.0 0.00 0.15 0.00 89 1015.4
20260904100042 70 277 3.0 11.0 0.00 0.15 0.00 89 1015.2
20260904094537 69 291 2.0 9.0 0.00 0.19 0.00 90 1015.1
20260904093050 69 316 1.0 5.0 0.00 0.19 0.00 90 1015.2
20260904091535 69 355 2.0 8.0 0.00 0.19 0.00 91 1015.2
20260904090037 69 327 1.0 9.0 0.00 0.19 0.00 90 1015.1
20260904084533 69 300 1.0 6.0 0.00 0.37 0.00 91 1015.1
20260904083030 69 266 1.0 8.0 0.00 0.37 0.00 91 1015.0
20260904081530 69 312 3.0 8.0 0.00 0.37 0.00 91 1014.8
20260904080029 69 278 3.0 8.0 0.00 0.37 0.00 91 1014.7
20260904074527 68 252 3.0 9.0 0.00 0.95 0.00 91 1014.6
20260904073025 68 264 1.0 8.0 0.00 0.95 0.00 92 1014.3
20260904071524 68 27 0.0 5.0 0.00 0.95 0.00 92 1014.2
20260904070038 68 299 2.0 8.0 0.00 0.95 0.00 92 1014.1
20260904064523 68 294 3.0 9.0 0.00 2.04 0.00 93 1014.0
20260904063021 68 271 1.0 3.0 0.00 2.04 0.00 93 1014.1
20260904061520 68 284 0.0 4.0 0.00 2.04 0.00 93 1014.1
20260904060021 68 252 2.0 6.0 0.00 2.04 0.00 93 1013.8
20260904054529 69 288 0.0 5.0 0.00 3.49 0.00 93 1014.0
20260904053017 69 222 3.0 7.0 0.00 3.49 0.00 93 1014.2
20260904051517 69 238 3.0 6.0 0.00 3.49 0.00 94 1014.4
20260904050020 69 252 2.0 10.0 0.00 3.49 0.00 94 1014.4
20260904044524 69 275 1.0 4.0 0.00 3.51 0.00 94 1014.2
20260904043016 69 219 2.0 6.0 0.00 3.51 0.00 94 1014.1
20260904041511 69 269 2.0 4.0 0.00 3.51 0.00 94 1013.9
20260904040009 69 236 0.0 4.0 0.00 3.51 0.00 93 1013.7
20260904034509 69 222 1.0 3.0 0.01 3.51 3.51 93 1013.7
20260904033007 70 247 2.0 5.0 0.02 3.51 3.51 92 1013.6
20260904031511 70 224 3.0 8.0 0.02 3.51 3.51 92 1014.3
20260904030007 71 168 4.0 8.0 0.01 3.50 3.50 90 1014.4
20260904024506 72 213 6.0 11.0 0.01 3.50 3.50 87 1015.2
20260904023005 73 253 5.0 20.0 0.00 3.49 3.49 86 1015.5
20260904021526 73 228 8.0 15.0 0.00 3.49 3.49 85 1016.0
20260904020027 75 223 7.0 19.0 0.00 3.49 3.49 85 1016.1
20260904014526 75 259 4.0 21.0 0.00 3.49 3.49 87 1015.7
20260904013026 76 261 4.0 12.0 0.00 3.49 3.49 91 1015.5
20260904011553 75 312 4.0 10.0 0.00 3.49 3.49 93 1015.1
20260904010028 75 236 0.0 5.0 0.01 3.49 3.49 92 1014.8
20260904004524 75 261 2.0 5.0 0.01 3.49 3.49 92 1014.4
20260904003023 76 257 0.0 1.0 0.02 3.49 3.49 91 1014.6
20260904001523 76 248 1.0 4.0 0.03 3.49 3.49 90 1014.9
20260904000036 76 288 4.0 9.0 0.02 3.48 3.48 90 1015.3
20260903234536 77 195 3.0 7.0 0.02 3.48 3.48 89 1015.0
20260903233022 78 290 3.0 9.0 0.01 3.47 3.47 87 1014.9
20260903231522 79 248 2.0 7.0 0.00 3.46 3.46 83 1014.3
20260903230031 79 275 2.0 9.0 0.00 3.46 3.46 82 1014.5
20260903224520 80 275 3.0 8.0 0.00 3.46 3.46 80 1014.5
20260903223020 80 232 3.0 9.0 0.00 3.46 3.46 80 1014.3
20260903221520 81 282 2.0 9.0 0.00 3.46 3.46 81 1014.4
20260903220019 81 307 2.0 7.0 0.00 3.46 3.46 81 1014.1
20260903214523 82 279 1.0 4.0 0.00 3.46 3.46 80 1013.8
20260903213029 82 246 4.0 7.0 0.00 3.46 3.46 78 1013.6
20260903211519 83 244 2.0 6.0 0.00 3.46 3.46 78 1013.6
20260903210015 83 250 5.0 10.0 0.00 3.46 3.46 77 1013.7
20260903204516 85 229 4.0 9.0 0.00 3.46 3.46 74 1013.7
20260903203026 84 248 3.0 10.0 0.00 3.46 3.46 74 1013.2
20260903201511 86 207 3.0 10.0 0.00 3.46 3.46 72 1013.5
20260903200009 86 225 4.0 11.0 0.00 3.46 3.46 70 1013.7
20260903194506 86 241 5.0 10.0 0.00 3.46 3.46 70 1013.9
20260903193009 86 227 4.0 10.0 0.00 3.46 3.46 69 1014.1
20260903191503 87 202 5.0 9.0 0.00 3.46 3.46 67 1014.3
20260903190100 85 266 3.0 9.0 0.00 3.46 3.46 70 1014.4
20260903184558 84 235 4.0 10.0 0.00 3.46 3.46 69 1014.7
20260903183057 86 261 3.0 8.0 0.00 3.46 3.46 69 1014.7
20260903181552 84 222 5.0 11.0 0.00 3.46 3.46 69 1014.9
20260903180101 85 239 4.0 10.0 0.00 3.46 3.46 68 1015.2
20260903174548 85 251 4.0 12.0 0.00 3.46 3.46 69 1015.3
20260903173044 84 263 7.0 11.0 0.00 3.46 3.46 70 1015.5
20260903171556 83 226 4.0 12.0 0.00 3.46 3.46 72 1015.7
20260903170037 82 266 4.0 15.0 0.00 3.46 3.46 74 1015.8
20260903164536 82 227 8.0 15.0 0.00 3.46 3.46 73 1015.9
20260903163030 81 252 5.0 12.0 0.00 3.46 3.46 75 1016.2
20260903161529 80 311 5.0 13.0 0.00 3.46 3.46 77 1016.5
20260903160031 78 244 7.0 15.0 0.00 3.46 3.46 77 1016.6
20260903154523 77 199 6.0 12.0 0.00 3.50 3.46 84 1016.9
20260903153015 76 238 7.0 12.0 0.00 3.50 3.46 85 1017.1